Wind_Speed
40 39 39 38 37 35 34 33 34 33 31 29 28 27 27 28 26 23 22 23 22 22 21 20 19 18 17 16 15 15 15 14 14 13 12 13 13 13 15 16 15 14
42 40 40 39 38 37 36 35 35 34 33 31 29 26 26 28 28 27 26 26 25 22 20 21 20 19 19 18 18 17 17 17 16 13 12 14 15 15 15 16 16 17
43 42 42 41 40 39 37 35 35 36 35 33 31 29 27 27 28 29 29 28 27 24 21 21 21 20 20 20 19 19 18 19 19 16 14 15 15 16 16 16 17 18
44 43 43 42 41 40 38 35 35 37 36 35 34 32 30 27 27 29 30 30 29 27 24 23 22 21 21 21 21 20 19 20 20 18 17 16 15 16 17 17 17 18
45 44 43 43 42 40 39 37 36 37 37 37 35 34 33 31 30 29 30 31 30 30 28 26 25 23 22 22 22 21 21 21 21 20 19 16 15 17 18 18 19 19
47 46 45 44 43 42 41 40 39 38 38 38 37 36 35 34 33 32 32 32 31 31 30 29 28 27 26 25 23 23 23 23 22 23 22 19 18 18 19 20 21 21
48 47 46 45 45 44 43 42 41 40 39 38 37 37 36 35 35 35 34 33 33 32 31 30 30 30 28 28 26 24 24 24 24 25 25 22 20 20 20 21 22 23
49 48 47 47 46 45 44 43 42 41 40 38 38 37 37 36 35 35 35 34 34 34 33 31 32 32 31 30 29 26 25 25 25 27 27 24 23 22 22 22 23 24
50 49 49 48 47 47 45 44 43 42 41 40 39 37 37 37 36 36 35 34 34 34 34 33 33 33 33 32 31 29 27 26 26 27 28 28 26 26 24 24 24 25
50 50 50 49 49 48 46 45 43 41 41 42 40 38 36 36 37 37 35 35 34 34 34 35 34 34 34 33 32 32 29 28 28 28 29 29 29 28 27 26 26 26
50 51 51 51 50 49 47 46 44 40 40 41 42 40 36 34 36 38 37 36 36 34 34 36 36 36 36 34 33 33 31 30 29 30 30 30 30 30 29 29 28 28
50 51 51 51 50 49 47 45 43 40 37 38 42 42 38 34 34 37 39 38 37 36 35 36 38 37 37 37 35 34 34 32 31 31 31 32 32 31 31 31 30 30
48 49 49 49 49 48 46 43 41 39 37 36 38 40 40 37 34 35 39 39 38 38 37 37 38 39 39 39 38 37 36 35 33 33 33 34 34 33 32 32 33 32
47 47 46 46 46 46 45 42 40 39 38 36 35 37 40 39 35 34 37 40 40 39 39 39 39 41 41 41 41 40 39 38 36 35 35 35 36 35 34 34 34 34
46 45 44 44 43 44 44 42 41 40 39 38 37 36 37 38 37 35 36 40 42 41 40 41 41 43 44 43 43 42 41 40 39 38 37 37 37 37 36 36 35 35
44 44 43 42 43 43 43 42 42 41 40 39 39 38 38 38 38 37 36 38 42 42 42 42 43 45 46 46 45 44 43 42 42 41 40 39 38 38 38 38 37 35
45 45 44 43 43 43 43 42 42 42 41 41 40 40 39 39 39 38 37 36 39 43 43 43 44 45 46 47 46 45 45 44 43 43 43 42 41 40 40 39 39 37
46 46 46 45 44 44 44 43 42 43 43 42 42 42 41 41 41 41 41 38 38 42 44 44 45 46 46 46 46 46 45 44 44 44 44 44 44 43 43 42 41 40
45 46 47 46 46 46 45 44 44 44 45 45 45 44 44 44 44 45 44 42 41 42 44 45 45 46 46 45 45 45 45 45 45 45 45 46 46 46 45 45 44 43
45 45 46 46 46 46 45 45 45 45 46 47 47 46 46 47 47 47 46 46 45 44 44 46 46 46 47 46 45 45 44 44 45 46 46 47 47 48 47 47 47 46
46 45 45 45 45 45 45 45 44 44 45 45 45 46 47 47 48 48 48 47 48 47 46 47 47 46 47 48 46 45 44 44 44 46 47 48 48 49 49 48 49 48
46 45 44 44 44 44 45 44 44 44 44 44 43 43 44 45 46 48 47 47 48 48 48 49 49 47 48 49 48 46 45 45 45 46 47 48 49 49 49 49 50 50
45 44 43 43 44 44 44 43 43 43 43 43 43 42 42 44 44 44 45 46 47 48 49 50 50 48 48 49 49 48 47 46 47 48 48 49 50 49 49 50 51 51
43 43 42 43 43 43 42 42 42 42 42 42 42 42 41 40 39 38 40 43 45 47 47 48 48 48 48 48 48 48 47 47 47 48 49 51 51 50 51 51 51 51
41 41 41 42 42 41 41 41 41 41 40 40 41 41 40 37 35 34 35 37 40 42 42 44 44 44 44 46 47 47 47 47 47 47 49 51 51 52 52 53 52 51
39 39 39 40 40 40 39 40 39 38 38 38 38 37 37 35 34 33 33 32 33 34 35 38 41 41 42 44 45 45 46 46 47 48 50 51 51 52 52 54 54 47
Wind_Direction
227 228 228 228 230 230 230 232 235 238 239 236 234 235 236 236 231 225 228 236 238 234 232 231 229 226 223 225 224 220 225 227 227 231 228 219 218 214 211 209 202 198
227 227 228 229 229 230 231 232 234 237 239 238 234 231 234 237 236 232 229 233 238 236 232 231 230 226 224 227 228 223 224 229 227 221 220 219 218 217 215 214 210 205
227 227 228 229 229 230 230 230 233 236 238 239 236 232 231 233 236 237 234 234 237 236 231 229 228 226 225 226 229 226 223 228 229 222 218 222 220 217 218 216 216 216
228 228 229 229 229 230 230 229 231 234 236 238 238 236 232 230 232 237 238 237 237 237 233 228 226 225 225 226 227 228 225 226 231 228 220 219 219 217 217 216 215 220
228 228 229 230 230 230 230 230 231 233 236 237 238 239 237 233 232 233 237 238 237 237 236 232 229 227 228 229 226 225 226 226 231 231 223 216 216 217 216 217 215 215
228 229 229 230 231 230 230 232 233 234 237 238 238 239 239 237 235 234 236 238 237 237 236 234 233 231 230 233 229 224 225 227 230 235 231 217 215 219 217 219 221 216
229 229 229 230 231 232 232 233 235 235 236 237 237 238 238 238 238 236 236 237 238 237 235 234 234 234 232 234 233 227 225 227 228 233 235 224 216 220 219 220 227 225
229 229 229 230 231 233 233 233 235 236 236 236 236 236 237 237 238 238 236 235 236 237 236 233 233 235 234 234 235 232 228 228 227 230 235 231 224 224 223 221 229 233
228 229 230 231 231 232 233 234 235 236 236 236 234 234 235 236 236 236 236 235 234 234 235 234 233 235 236 235 235 235 231 230 230 232 236 237 235 233 230 225 227 233
227 229 230 231 232 232 233 234 234 235 236 237 235 231 231 234 235 235 236 237 235 233 234 235 234 235 236 235 235 236 234 231 232 235 238 240 241 241 238 233 231 234
227 228 229 230 231 232 232 233 232 229 232 236 236 231 226 228 233 235 236 238 237 234 233 235 235 236 236 235 234 236 235 234 233 235 238 242 244 244 243 241 240 239
226 227 228 228 230 230 230 229 227 223 223 229 235 234 227 223 228 235 237 237 238 237 235 235 236 236 237 237 235 236 237 235 234 235 238 241 244 245 245 244 244 243
226 228 228 228 229 229 226 223 221 219 217 221 229 234 231 224 222 229 237 239 238 238 236 236 236 236 237 237 237 237 238 237 235 235 237 239 242 244 245 246 246 245
226 228 229 229 229 229 226 221 218 218 217 217 222 229 232 229 222 223 233 239 239 238 237 237 237 236 236 236 237 237 237 238 237 236 236 238 241 243 245 245 246 246
224 225 228 229 228 228 228 223 219 219 218 217 218 223 228 230 225 220 226 236 240 239 237 237 237 237 236 236 236 236 236 238 238 237 237 238 241 243 244 245 244 245
222 224 226 228 228 228 229 226 222 220 219 219 219 221 225 228 227 221 221 230 239 240 238 237 237 238 238 237 236 236 237 238 239 239 239 238 240 242 243 244 244 243
224 226 227 229 229 228 229 228 225 222 221 221 221 221 223 226 228 225 220 222 234 240 241 239 238 239 240 239 238 238 238 239 239 241 241 241 241 242 243 244 245 244
225 227 229 230 231 231 230 230 228 224 221 222 222 221 223 225 227 229 226 222 226 236 241 241 240 240 241 241 241 239 239 240 241 241 242 243 243 243 244 244 245 245
224 227 230 232 232 233 232 231 231 229 225 225 226 225 227 229 230 232 232 228 226 230 237 241 243 243 242 242 242 242 240 239 240 242 242 244 244 244 244 245 245 245
224 227 230 232 232 232 232 232 234 233 231 229 228 228 230 231 233 234 235 234 232 231 234 238 241 243 244 243 242 242 242 240 240 241 243 244 245 246 245 246 246 246
225 228 229 230 231 232 232 234 235 236 235 231 228 229 232 233 234 236 237 238 238 236 235 238 240 241 243 245 244 242 242 242 241 240 242 244 245 246 247 247 248 248
224 227 228 229 231 232 233 235 236 237 236 232 228 228 232 234 236 238 238 239 241 241 241 242 242 242 243 246 246 245 243 242 242 241 241 242 243 245 246 247 248 248
224 227 228 229 230 231 233 235 235 236 235 233 230 228 230 233 236 237 238 240 242 244 246 246 246 245 245 246 247 247 245 243 243 243 242 243 243 243 244 246 248 248
224 227 228 229 231 232 234 235 234 235 235 235 235 232 230 231 232 233 236 241 244 246 247 248 248 246 246 248 248 248 247 245 244 244 244 245 244 243 243 245 247 247
225 227 229 231 233 234 234 233 233 233 234 235 237 235 231 228 227 228 232 237 243 245 245 248 249 247 248 249 249 249 248 246 244 244 244 245 245 245 245 245 246 247
226 228 231 233 234 235 234 234 234 234 234 235 236 236 233 231 228 228 230 233 238 240 241 245 248 248 248 250 251 250 249 247 245 244 244 245 246 246 247 247 246 245
Height
1525 1527 1529 1532 1534 1536 1538 1540 1542 1543 1545 1547 1548 1550 1551 1553 1554 1556 1557 1557 1558 1560 1561 1562 1563 1565 1566 1567 1568 1569 1569 1570 1571 1571 1572 1572 1573 1573 1574 1574 1575 1576
1521 1523 1526 1528 1530 1533 1535 1537 1539 1540 1542 1544 1546 1548 1549 1550 1551 1553 1554 1555 1556 1557 1559 1560 1561 1563 1564 1565 1566 1567 1568 1568 1569 1570 1570 1571 1571 1572 1572 1573 1574 1575
1517 1520 1522 1524 1526 1529 1531 1534 1536 1537 1539 1540 1542 1545 1546 1547 1548 1549 1551 1552 1553 1555 1556 1558 1559 1560 1562 1563 1564 1565 1566 1566 1567 1568 1569 1569 1570 1570 1571 1572 1573 1573
1513 1515 1518 1520 1523 1526 1528 1530 1532 1533 1535 1537 1539 1541 1543 1545 1546 1547 1548 1549 1551 1552 1554 1555 1556 1557 1559 1560 1561 1562 1563 1564 1565 1566 1567 1567 1568 1568 1569 1570 1571 1572
1508 1511 1514 1517 1519 1522 1524 1526 1528 1530 1531 1533 1535 1537 1539 1541 1543 1544 1545 1546 1548 1549 1551 1552 1553 1555 1556 1557 1559 1560 1561 1562 1562 1563 1564 1565 1566 1566 1567 1568 1569 1570
1504 1507 1510 1513 1515 1518 1520 1522 1524 1526 1528 1530 1532 1534 1535 1537 1539 1541 1542 1543 1545 1546 1548 1549 1550 1552 1553 1554 1556 1557 1558 1560 1560 1561 1562 1563 1563 1564 1565 1566 1567 1568
1499 1502 1505 1508 1511 1513 1516 1518 1520 1522 1524 1526 1528 1530 1532 1533 1535 1537 1539 1540 1542 1543 1545 1546 1547 1549 1550 1551 1553 1554 1556 1557 1558 1558 1559 1560 1561 1561 1562 1563 1564 1565
1495 1498 1501 1504 1507 1509 1511 1514 1516 1518 1520 1522 1524 1526 1528 1530 1531 1533 1535 1537 1538 1540 1542 1543 1544 1546 1547 1548 1549 1551 1553 1554 1555 1556 1556 1557 1558 1559 1559 1560 1561 1562
1491 1493 1496 1499 1502 1505 1507 1510 1512 1514 1516 1518 1520 1522 1524 1526 1527 1529 1531 1533 1535 1537 1538 1540 1541 1542 1544 1546 1546 1548 1549 1551 1552 1553 1554 1554 1555 1556 1557 1558 1558 1559
1486 1489 1492 1495 1498 1500 1503 1506 1508 1510 1512 1514 1516 1519 1520 1522 1524 1526 1527 1529 1531 1533 1535 1537 1538 1539 1541 1543 1544 1545 1546 1548 1549 1550 1551 1551 1552 1553 1554 1555 1556 1556
1480 1483 1486 1489 1492 1495 1498 1501 1504 1506 1507 1509 1511 1515 1517 1518 1520 1522 1524 1525 1527 1530 1532 1533 1535 1536 1538 1539 1541 1542 1543 1545 1546 1547 1548 1549 1550 1551 1552 1552 1553 1553
1475 1478 1480 1483 1486 1490 1493 1496 1499 1502 1504 1505 1506 1510 1513 1515 1516 1518 1520 1522 1524 1526 1528 1529 1531 1533 1534 1536 1538 1539 1540 1541 1543 1544 1544 1545 1546 1547 1548 1549 1550 1550
1470 1473 1476 1479 1482 1485 1489 1492 1495 1498 1500 1501 1503 1505 1508 1511 1513 1514 1515 1518 1520 1522 1524 1526 1527 1529 1530 1532 1534 1535 1536 1538 1539 1540 1541 1542 1543 1544 1545 1545 1546 1547
1466 1469 1473 1476 1479 1481 1485 1488 1491 1494 1496 1499 1500 1501 1504 1507 1510 1511 1511 1513 1515 1517 1520 1521 1523 1524 1525 1527 1529 1531 1532 1533 1535 1536 1537 1538 1539 1540 1541 1542 1542 1543
1463 1466 1470 1473 1476 1478 1481 1484 1487 1490 1493 1495 1497 1498 1500 1503 1506 1508 1508 1508 1510 1513 1515 1517 1518 1519 1520 1522 1524 1526 1528 1529 1531 1532 1533 1534 1535 1536 1537 1538 1539 1539
1459 1463 1466 1469 1472 1474 1477 1480 1483 1486 1489 1491 1493 1494 1496 1498 1501 1504 1505 1505 1506 1508 1510 1512 1512 1513 1515 1517 1519 1521 1524 1525 1527 1528 1529 1531 1531 1532 1533 1534 1535 1536
1455 1458 1461 1464 1467 1470 1473 1476 1479 1482 1484 1487 1489 1491 1493 1494 1497 1499 1501 1502 1502 1503 1505 1507 1507 1508 1510 1512 1515 1517 1520 1521 1523 1524 1525 1527 1527 1528 1529 1530 1531 1532
1451 1454 1457 1460 1463 1465 1468 1471 1475 1478 1480 1482 1484 1486 1488 1490 1492 1494 1497 1499 1499 1499 1500 1501 1502 1503 1505 1507 1510 1513 1516 1517 1519 1520 1521 1522 1523 1523 1524 1525 1526 1527
1447 1450 1453 1456 1458 1461 1464 1467 1470 1473 1475 1477 1479 1482 1484 1486 1487 1489 1491 1494 1495 1495 1495 1496 1497 1498 1500 1503 1505 1507 1510 1513 1514 1515 1515 1516 1517 1518 1519 1520 1521 1522
1443 1445 1448 1451 1454 1457 1460 1462 1465 1467 1470 1472 1475 1477 1479 1480 1482 1484 1486 1488 1489 1490 1491 1492 1493 1493 1494 1497 1500 1502 1504 1507 1509 1510 1510 1511 1511 1512 1513 1514 1515 1517
1438 1441 1444 1447 1450 1453 1455 1457 1459 1462 1464 1468 1470 1472 1474 1475 1477 1479 1480 1482 1484 1485 1486 1487 1487 1489 1489 1491 1494 1497 1499 1502 1504 1505 1505 1505 1505 1506 1507 1509 1510 1511
1434 1437 1440 1443 1446 1448 1450 1452 1454 1457 1459 1463 1466 1468 1470 1471 1472 1473 1475 1477 1478 1480 1481 1481 1482 1484 1485 1486 1488 1492 1495 1498 1499 1500 1500 1500 1500 1501 1502 1503 1504 1505
1431 1434 1437 1439 1441 1443 1445 1448 1450 1453 1456 1459 1462 1464 1465 1466 1467 1469 1470 1472 1473 1474 1475 1475 1477 1479 1480 1481 1483 1486 1490 1492 1493 1494 1495 1495 1496 1496 1497 1497 1498 1499
1428 1431 1433 1435 1437 1438 1441 1444 1447 1449 1452 1454 1456 1458 1460 1462 1463 1465 1466 1467 1468 1468 1469 1470 1472 1474 1475 1476 1478 1480 1482 1485 1487 1488 1489 1489 1491 1492 1492 1492 1492 1493
1425 1428 1430 1431 1433 1434 1437 1440 1443 1445 1448 1450 1451 1454 1456 1459 1460 1461 1462 1462 1463 1464 1465 1466 1468 1469 1470 1471 1472 1474 1476 1478 1480 1481 1482 1483 1484 1486 1486 1486 1486 1487
1421 1424 1426 1428 1430 1432 1435 1438 1440 1442 1444 1446 1448 1450 1453 1455 1456 1458 1459 1460 1460 1461 1462 1462 1463 1464 1465 1465 1466 1468 1469 1471 1473 1474 1475 1476 1478 1479 1480 1480 1481 1482